Location: Aalen
(48.8330°N, 10.1000°E)
Time: 07:15:52
(UTC+01:00)

BlueWalker 3 - Pass Details

Date: 09 December 2022
Orbit: 499 x 517 km, 53.2° (Epoch: 28 January)

Event Time Altitude Azimuth Distance (km) Brightness Sun altitude
Rises 19:43:03 0° 287° (WNW) 2,624 6.6 -31.8°
Reaches altitude 10° 19:46:01 10° 263° (W) 1,727 5.5 -32.3°
Enters shadow 19:47:33 14° 241° (WSW) 1,481 4.9 -32.5°
